Year,Month,Day,Hour,Minute,Value (Times are PST for temperature in C)
2006,06,25,00,00,15.40
2006,06,25,00,01,15.40
2006,06,25,00,02,15.40
2006,06,25,00,03,15.40
2006,06,25,00,04,15.30
2006,06,25,00,05,15.30
2006,06,25,00,06,15.30
2006,06,25,00,07,15.30
2006,06,25,00,08,15.30
2006,06,25,00,09,15.30
2006,06,25,00,10,15.20
2006,06,25,00,11,15.20
2006,06,25,00,12,15.20
2006,06,25,00,13,15.10
2006,06,25,00,14,15.00
2006,06,25,00,15,15.00
2006,06,25,00,16,15.00
2006,06,25,00,17,15.00
2006,06,25,00,18,15.00
2006,06,25,00,19,15.00
2006,06,25,00,20,15.00
2006,06,25,00,21,15.00
2006,06,25,00,22,15.00
2006,06,25,00,23,15.00
2006,06,25,00,24,15.00
2006,06,25,00,25,15.00
2006,06,25,00,26,15.00
2006,06,25,00,27,15.00
2006,06,25,00,28,15.00
2006,06,25,00,29,14.90
2006,06,25,00,30,14.90
2006,06,25,00,31,14.90
2006,06,25,00,32,14.90
2006,06,25,00,33,14.90
2006,06,25,00,34,14.90
2006,06,25,00,35,14.90
2006,06,25,00,36,14.90
2006,06,25,00,37,14.80
2006,06,25,00,38,14.80
2006,06,25,00,39,14.80
2006,06,25,00,40,14.80
2006,06,25,00,41,14.80
2006,06,25,00,42,14.80
2006,06,25,00,43,14.70
2006,06,25,00,44,14.70
2006,06,25,00,45,14.70
2006,06,25,00,46,14.70
2006,06,25,00,47,14.70
2006,06,25,00,48,14.70
2006,06,25,00,49,14.70
2006,06,25,00,50,14.70
2006,06,25,00,51,14.70
2006,06,25,00,52,14.70
2006,06,25,00,53,14.60
2006,06,25,00,54,14.60
2006,06,25,00,55,14.60
2006,06,25,00,56,14.60
2006,06,25,00,57,14.60
2006,06,25,00,58,14.60
2006,06,25,00,59,14.60
2006,06,25,01,00,14.60
2006,06,25,01,01,14.60
2006,06,25,01,02,14.60
2006,06,25,01,03,14.60
2006,06,25,01,04,14.50
2006,06,25,01,05,14.50
2006,06,25,01,06,14.50
2006,06,25,01,07,14.50
2006,06,25,01,08,14.50
2006,06,25,01,09,14.40
2006,06,25,01,10,14.40
2006,06,25,01,11,14.40
2006,06,25,01,12,14.40
2006,06,25,01,13,14.40
2006,06,25,01,14,14.40
2006,06,25,01,15,14.40
2006,06,25,01,16,14.30
2006,06,25,01,17,14.30
2006,06,25,01,18,14.30
2006,06,25,01,19,14.30
2006,06,25,01,20,14.30
2006,06,25,01,21,14.20
2006,06,25,01,22,14.20
2006,06,25,01,23,14.20
2006,06,25,01,24,14.20
2006,06,25,01,25,14.20
2006,06,25,01,26,14.20
2006,06,25,01,27,14.20
2006,06,25,01,28,14.20
2006,06,25,01,29,14.20
2006,06,25,01,30,14.20
2006,06,25,01,31,14.20
2006,06,25,01,32,14.20
2006,06,25,01,33,14.10
2006,06,25,01,34,14.10
2006,06,25,01,35,14.10
2006,06,25,01,36,14.10
2006,06,25,01,37,14.10
2006,06,25,01,38,14.10
2006,06,25,01,39,14.00
2006,06,25,01,40,14.00
2006,06,25,01,41,14.00
2006,06,25,01,42,14.00
2006,06,25,01,43,14.00
2006,06,25,01,44,14.00
2006,06,25,01,45,14.00
2006,06,25,01,46,13.90
2006,06,25,01,47,13.90
2006,06,25,01,48,13.90
2006,06,25,01,49,13.90
2006,06,25,01,50,13.90
2006,06,25,01,51,13.90
2006,06,25,01,52,13.90
2006,06,25,01,53,13.80
2006,06,25,01,54,13.80
2006,06,25,01,55,13.80
2006,06,25,01,56,13.80
2006,06,25,01,57,13.80
2006,06,25,01,58,13.80
2006,06,25,01,59,13.80
2006,06,25,02,00,13.80
2006,06,25,02,01,13.80
2006,06,25,02,02,13.80
2006,06,25,02,03,13.80
2006,06,25,02,04,13.80
2006,06,25,02,05,13.80
2006,06,25,02,06,13.80
2006,06,25,02,07,13.70
2006,06,25,02,08,13.70
2006,06,25,02,09,13.70
2006,06,25,02,10,13.70
2006,06,25,02,11,13.70
2006,06,25,02,12,13.70
2006,06,25,02,13,13.60
2006,06,25,02,14,13.60
2006,06,25,02,15,13.60
2006,06,25,02,16,13.60
2006,06,25,02,17,13.60
2006,06,25,02,18,13.60
2006,06,25,02,19,13.60
2006,06,25,02,20,13.60
2006,06,25,02,21,13.60
2006,06,25,02,22,13.60
2006,06,25,02,23,13.60
2006,06,25,02,24,13.50
2006,06,25,02,25,13.50
2006,06,25,02,26,13.50
2006,06,25,02,27,13.50
2006,06,25,02,28,13.50
2006,06,25,02,29,13.50
2006,06,25,02,30,13.50
2006,06,25,02,31,13.50
2006,06,25,02,32,13.50
2006,06,25,02,33,13.40
2006,06,25,02,34,13.40
2006,06,25,02,35,13.40
2006,06,25,02,36,13.40
2006,06,25,02,37,13.40
2006,06,25,02,38,13.40
2006,06,25,02,39,13.40
2006,06,25,02,40,13.40
2006,06,25,02,41,13.40
2006,06,25,02,42,13.40
2006,06,25,02,43,13.30
2006,06,25,02,44,13.30
2006,06,25,02,45,13.30
2006,06,25,02,46,13.30
2006,06,25,02,47,13.30
2006,06,25,02,48,13.30
2006,06,25,02,49,13.20
2006,06,25,02,50,13.20
2006,06,25,02,51,13.20
2006,06,25,02,52,13.20
2006,06,25,02,53,13.10
2006,06,25,02,54,13.10
2006,06,25,02,55,13.10
2006,06,25,02,56,13.10
2006,06,25,02,57,13.10
2006,06,25,02,58,13.10
2006,06,25,02,59,13.10
2006,06,25,03,00,13.10
2006,06,25,03,01,13.10
2006,06,25,03,02,13.10
2006,06,25,03,03,13.10
2006,06,25,03,04,13.10
2006,06,25,03,05,13.00
2006,06,25,03,06,13.00
2006,06,25,03,07,13.00
2006,06,25,03,08,13.10
2006,06,25,03,09,13.10
2006,06,25,03,10,13.10
2006,06,25,03,11,13.10
2006,06,25,03,12,13.10
2006,06,25,03,13,13.10
2006,06,25,03,14,13.10
2006,06,25,03,15,13.10
2006,06,25,03,16,13.10
2006,06,25,03,17,13.10
2006,06,25,03,18,13.10
2006,06,25,03,19,13.10
2006,06,25,03,20,13.10
2006,06,25,03,21,13.10
2006,06,25,03,22,13.10
2006,06,25,03,23,13.00
2006,06,25,03,24,13.00
2006,06,25,03,25,13.00
2006,06,25,03,26,13.10
2006,06,25,03,27,13.00
2006,06,25,03,28,13.10
2006,06,25,03,29,13.10
2006,06,25,03,30,13.10
2006,06,25,03,31,13.10
2006,06,25,03,32,13.10
2006,06,25,03,33,13.10
2006,06,25,03,34,13.10
2006,06,25,03,35,13.10
2006,06,25,03,36,13.10
2006,06,25,03,37,13.10
2006,06,25,03,38,13.10
2006,06,25,03,39,13.10
2006,06,25,03,40,13.10
2006,06,25,03,41,13.10
2006,06,25,03,42,13.10
2006,06,25,03,43,13.10
2006,06,25,03,44,13.10
2006,06,25,03,45,13.00
2006,06,25,03,46,13.00
2006,06,25,03,47,13.00
2006,06,25,03,48,13.00
2006,06,25,03,49,13.00
2006,06,25,03,50,13.00
2006,06,25,03,51,13.10
2006,06,25,03,52,13.10
2006,06,25,03,53,13.00
2006,06,25,03,54,13.00
2006,06,25,03,55,13.00
2006,06,25,03,56,13.00
2006,06,25,03,57,13.00
2006,06,25,03,58,13.00
2006,06,25,03,59,13.00
2006,06,25,04,00,13.00
2006,06,25,04,01,13.00
2006,06,25,04,02,12.90
2006,06,25,04,03,12.90
2006,06,25,04,04,12.90
2006,06,25,04,05,12.90
2006,06,25,04,06,12.90
2006,06,25,04,07,12.90
2006,06,25,04,08,12.90
2006,06,25,04,09,12.90
2006,06,25,04,10,12.90
2006,06,25,04,11,12.90
2006,06,25,04,12,12.90
2006,06,25,04,13,12.90
2006,06,25,04,14,12.90
2006,06,25,04,15,12.90
2006,06,25,04,16,12.90
2006,06,25,04,17,12.90
2006,06,25,04,18,12.90
2006,06,25,04,19,12.90
2006,06,25,04,20,12.90
2006,06,25,04,21,12.90
2006,06,25,04,22,12.90
2006,06,25,04,23,12.90
2006,06,25,04,24,12.90
2006,06,25,04,25,12.90
2006,06,25,04,26,12.90
2006,06,25,04,27,12.90
2006,06,25,04,28,12.90
2006,06,25,04,29,12.90
2006,06,25,04,30,12.90
2006,06,25,04,31,12.90
2006,06,25,04,32,12.90
2006,06,25,04,33,12.90
2006,06,25,04,34,12.90
2006,06,25,04,35,12.90
2006,06,25,04,36,12.90
2006,06,25,04,37,12.90
2006,06,25,04,38,12.90
2006,06,25,04,39,12.80
2006,06,25,04,40,12.80
2006,06,25,04,41,12.80
2006,06,25,04,42,12.80
2006,06,25,04,43,12.80
2006,06,25,04,44,12.80
2006,06,25,04,45,12.80
2006,06,25,04,46,12.80
2006,06,25,04,47,12.80
2006,06,25,04,48,12.70
2006,06,25,04,49,12.70
2006,06,25,04,50,12.70
2006,06,25,04,51,12.70
2006,06,25,04,52,12.70
2006,06,25,04,53,12.70
2006,06,25,04,54,12.70
2006,06,25,04,55,12.70
2006,06,25,04,56,12.70
2006,06,25,04,57,12.70
2006,06,25,04,58,12.70
2006,06,25,04,59,12.70
2006,06,25,05,00,12.70
2006,06,25,05,01,12.70
2006,06,25,05,02,12.70
2006,06,25,05,03,12.70
2006,06,25,05,04,12.70
2006,06,25,05,05,12.70
2006,06,25,05,06,12.70
2006,06,25,05,07,12.70
2006,06,25,05,08,12.70
2006,06,25,05,09,12.70
2006,06,25,05,10,12.70
2006,06,25,05,11,12.70
2006,06,25,05,12,12.70
2006,06,25,05,13,12.60
2006,06,25,05,14,12.60
2006,06,25,05,15,12.60
2006,06,25,05,16,12.60
2006,06,25,05,17,12.50
2006,06,25,05,18,12.50
2006,06,25,05,19,12.50
2006,06,25,05,20,12.50
2006,06,25,05,21,12.50
2006,06,25,05,22,12.50
2006,06,25,05,23,12.50
2006,06,25,05,24,12.50
2006,06,25,05,25,12.50
2006,06,25,05,26,12.50
2006,06,25,05,27,12.60
2006,06,25,05,28,12.60
2006,06,25,05,29,12.60
2006,06,25,05,30,12.60
2006,06,25,05,31,12.60
2006,06,25,05,32,12.60
2006,06,25,05,33,12.60
2006,06,25,05,34,12.60
2006,06,25,05,35,12.60
2006,06,25,05,36,12.60
2006,06,25,05,37,12.70
2006,06,25,05,38,12.70
2006,06,25,05,39,12.70
2006,06,25,05,40,12.70
2006,06,25,05,41,12.70
2006,06,25,05,42,12.70
2006,06,25,05,43,12.70
2006,06,25,05,44,12.70
2006,06,25,05,45,12.70
2006,06,25,05,46,12.70
2006,06,25,05,47,12.70
2006,06,25,05,48,12.70
2006,06,25,05,49,12.70
2006,06,25,05,50,12.70
2006,06,25,05,51,12.70
2006,06,25,05,52,12.70
2006,06,25,05,53,12.70
2006,06,25,05,54,12.70
2006,06,25,05,55,12.80
2006,06,25,05,56,12.80
2006,06,25,05,57,12.80
2006,06,25,05,58,12.80
2006,06,25,05,59,12.80
2006,06,25,06,00,12.80
2006,06,25,06,01,12.80
2006,06,25,06,02,12.80
2006,06,25,06,03,12.80
2006,06,25,06,04,12.80
2006,06,25,06,05,12.80
2006,06,25,06,06,12.80
2006,06,25,06,07,12.80
2006,06,25,06,08,12.80
2006,06,25,06,09,12.80
2006,06,25,06,10,12.80
2006,06,25,06,11,12.80
2006,06,25,06,12,12.80
2006,06,25,06,13,12.80
2006,06,25,06,14,12.80
2006,06,25,06,15,12.80
2006,06,25,06,16,12.80
2006,06,25,06,17,12.80
2006,06,25,06,18,12.90
2006,06,25,06,19,12.90
2006,06,25,06,20,12.90
2006,06,25,06,21,12.90
2006,06,25,06,22,12.90
2006,06,25,06,23,12.90
2006,06,25,06,24,12.90
2006,06,25,06,25,12.90
2006,06,25,06,26,13.00
2006,06,25,06,27,13.00
2006,06,25,06,28,13.00
2006,06,25,06,29,13.00
2006,06,25,06,30,13.10
2006,06,25,06,31,13.10
2006,06,25,06,32,13.10
2006,06,25,06,33,13.10
2006,06,25,06,34,13.20
2006,06,25,06,35,13.20
2006,06,25,06,36,13.20
2006,06,25,06,37,13.20
2006,06,25,06,38,13.20
2006,06,25,06,39,13.30
2006,06,25,06,40,13.30
2006,06,25,06,41,13.30
2006,06,25,06,42,13.30
2006,06,25,06,43,13.40
2006,06,25,06,44,13.40
2006,06,25,06,45,13.40
2006,06,25,06,46,13.50
2006,06,25,06,47,13.50
2006,06,25,06,48,13.60
2006,06,25,06,49,13.70
2006,06,25,06,50,13.80
2006,06,25,06,51,13.80
2006,06,25,06,52,13.90
2006,06,25,06,53,13.90
2006,06,25,06,54,14.20
2006,06,25,06,55,14.30
2006,06,25,06,56,14.40
2006,06,25,06,57,14.50
2006,06,25,06,58,14.60
2006,06,25,06,59,14.80
2006,06,25,07,00,15.00
2006,06,25,07,01,15.00
2006,06,25,07,02,15.20
2006,06,25,07,03,15.30
2006,06,25,07,04,15.40
2006,06,25,07,05,15.50
2006,06,25,07,06,15.60
2006,06,25,07,07,15.60
2006,06,25,07,08,15.70
2006,06,25,07,09,15.70
2006,06,25,07,10,15.70
2006,06,25,07,11,15.70
2006,06,25,07,12,15.70
2006,06,25,07,13,15.80
2006,06,25,07,14,15.80
2006,06,25,07,15,15.90
2006,06,25,07,16,16.00
2006,06,25,07,17,16.10
2006,06,25,07,18,16.20
2006,06,25,07,19,16.30
2006,06,25,07,20,16.40
2006,06,25,07,21,16.50
2006,06,25,07,22,16.60
2006,06,25,07,23,16.70
2006,06,25,07,24,16.80
2006,06,25,07,25,16.90
2006,06,25,07,26,17.00
2006,06,25,07,27,17.10
2006,06,25,07,28,17.30
2006,06,25,07,29,17.40
2006,06,25,07,30,17.60
2006,06,25,07,31,17.70
2006,06,25,07,32,17.80
2006,06,25,07,33,17.90
2006,06,25,07,34,18.00
2006,06,25,07,35,18.10
2006,06,25,07,36,18.30
2006,06,25,07,37,18.40
2006,06,25,07,38,18.50
2006,06,25,07,39,18.60
2006,06,25,07,40,18.70
2006,06,25,07,41,18.80
2006,06,25,07,42,18.90
2006,06,25,07,43,19.00
2006,06,25,07,44,19.20
2006,06,25,07,45,19.30
2006,06,25,07,46,19.30
2006,06,25,07,47,19.40
2006,06,25,07,48,19.50
2006,06,25,07,49,19.70
2006,06,25,07,50,19.80
2006,06,25,07,51,19.90
2006,06,25,07,52,20.00
2006,06,25,07,53,20.00
2006,06,25,07,54,20.10
2006,06,25,07,55,20.20
2006,06,25,07,56,20.30
2006,06,25,07,57,20.50
2006,06,25,07,58,20.60
2006,06,25,07,59,20.70
2006,06,25,08,00,20.80
2006,06,25,08,01,20.90
2006,06,25,08,02,21.00
2006,06,25,08,03,21.00
2006,06,25,08,04,21.10
2006,06,25,08,05,21.00
2006,06,25,08,06,21.00
2006,06,25,08,07,20.90
2006,06,25,08,08,20.90
2006,06,25,08,09,20.80
2006,06,25,08,10,20.80
2006,06,25,08,11,20.80
2006,06,25,08,12,20.70
2006,06,25,08,13,20.70
2006,06,25,08,14,20.70
2006,06,25,08,15,20.70
2006,06,25,08,16,20.70
2006,06,25,08,17,20.70
2006,06,25,08,18,20.70
2006,06,25,08,19,20.70
2006,06,25,08,20,20.70
2006,06,25,08,21,20.80
2006,06,25,08,22,20.80
2006,06,25,08,23,20.90
2006,06,25,08,24,20.90
2006,06,25,08,25,21.00
2006,06,25,08,26,21.00
2006,06,25,08,27,21.10
2006,06,25,08,28,21.20
2006,06,25,08,29,21.20
2006,06,25,08,30,21.30
2006,06,25,08,31,21.40
2006,06,25,08,32,21.40
2006,06,25,08,33,21.50
2006,06,25,08,34,21.60
2006,06,25,08,35,21.70
2006,06,25,08,36,21.70
2006,06,25,08,37,21.80
2006,06,25,08,38,21.90
2006,06,25,08,39,21.90
2006,06,25,08,40,21.90
2006,06,25,08,41,21.90
2006,06,25,08,42,21.90
2006,06,25,08,43,21.90
2006,06,25,08,44,21.90
2006,06,25,08,45,21.90
2006,06,25,08,46,21.90
2006,06,25,08,47,21.80
2006,06,25,08,48,21.80
2006,06,25,08,49,21.80
2006,06,25,08,50,21.80
2006,06,25,08,51,21.80
2006,06,25,08,52,21.80
2006,06,25,08,53,21.80
2006,06,25,08,54,21.70
2006,06,25,08,55,21.70
2006,06,25,08,56,21.60
2006,06,25,08,57,21.60
2006,06,25,08,58,21.50
2006,06,25,08,59,21.50
2006,06,25,09,00,21.50
2006,06,25,09,01,21.50
2006,06,25,09,02,21.40
2006,06,25,09,03,21.50
2006,06,25,09,04,21.50
2006,06,25,09,05,21.60
2006,06,25,09,06,21.60
2006,06,25,09,07,21.60
2006,06,25,09,08,21.60
2006,06,25,09,09,21.70
2006,06,25,09,10,21.70
2006,06,25,09,11,21.80
2006,06,25,09,12,21.80
2006,06,25,09,13,21.90
2006,06,25,09,14,22.00
2006,06,25,09,15,22.10
2006,06,25,09,16,22.10
2006,06,25,09,17,22.20
2006,06,25,09,18,22.20
2006,06,25,09,19,22.30
2006,06,25,09,20,22.40
2006,06,25,09,21,22.50
2006,06,25,09,22,22.60
2006,06,25,09,23,22.70
2006,06,25,09,24,22.70
2006,06,25,09,25,22.70
2006,06,25,09,26,22.60
2006,06,25,09,27,22.60
2006,06,25,09,28,22.60
2006,06,25,09,29,22.60
2006,06,25,09,30,22.60
2006,06,25,09,31,22.60
2006,06,25,09,32,22.50
2006,06,25,09,33,22.40
2006,06,25,09,34,22.40
2006,06,25,09,35,22.30
2006,06,25,09,36,22.30
2006,06,25,09,37,22.30
2006,06,25,09,38,22.30
2006,06,25,09,39,22.30
2006,06,25,09,40,22.30
2006,06,25,09,41,22.40
2006,06,25,09,42,22.40
2006,06,25,09,43,22.40
2006,06,25,09,44,22.40
2006,06,25,09,45,22.50
2006,06,25,09,46,22.50
2006,06,25,09,47,22.50
2006,06,25,09,48,22.60
2006,06,25,09,49,22.60
2006,06,25,09,50,22.70
2006,06,25,09,51,22.70
2006,06,25,09,52,22.70
2006,06,25,09,53,22.70
2006,06,25,09,54,22.70
2006,06,25,09,55,22.70
2006,06,25,09,56,22.80
2006,06,25,09,57,22.80
2006,06,25,09,58,22.80
2006,06,25,09,59,22.80
2006,06,25,10,00,22.80
2006,06,25,10,01,22.80
2006,06,25,10,02,22.80
2006,06,25,10,03,22.80
2006,06,25,10,04,22.80
2006,06,25,10,05,22.80
2006,06,25,10,06,22.90
2006,06,25,10,07,22.90
2006,06,25,10,08,23.00
2006,06,25,10,09,23.00
2006,06,25,10,10,23.00
2006,06,25,10,11,23.10
2006,06,25,10,12,23.10
2006,06,25,10,13,23.20
2006,06,25,10,14,23.20
2006,06,25,10,15,23.20
2006,06,25,10,16,23.30
2006,06,25,10,17,23.30
2006,06,25,10,18,23.30
2006,06,25,10,19,23.30
2006,06,25,10,20,23.30
2006,06,25,10,21,23.30
2006,06,25,10,22,23.30
2006,06,25,10,23,23.30
2006,06,25,10,24,23.30
2006,06,25,10,25,23.30
2006,06,25,10,26,23.40
2006,06,25,10,27,23.40
2006,06,25,10,28,23.50
2006,06,25,10,29,23.50
2006,06,25,10,30,23.60
2006,06,25,10,31,23.60
2006,06,25,10,32,23.70
2006,06,25,10,33,23.70
2006,06,25,10,34,23.70
2006,06,25,10,35,23.80
2006,06,25,10,36,23.80
2006,06,25,10,37,23.80
2006,06,25,10,38,23.80
2006,06,25,10,39,23.90
2006,06,25,10,40,24.00
2006,06,25,10,41,24.00
2006,06,25,10,42,24.10
2006,06,25,10,43,24.10
2006,06,25,10,44,24.10
2006,06,25,10,45,24.10
2006,06,25,10,46,24.00
2006,06,25,10,47,24.00
2006,06,25,10,48,24.00
2006,06,25,10,49,24.00
2006,06,25,10,50,24.00
2006,06,25,10,51,24.00
2006,06,25,10,52,24.10
2006,06,25,10,53,24.10
2006,06,25,10,54,24.10
2006,06,25,10,55,24.10
2006,06,25,10,56,24.20
2006,06,25,10,57,24.20
2006,06,25,10,58,24.20
2006,06,25,10,59,24.20
2006,06,25,11,00,24.20
2006,06,25,11,01,24.20
2006,06,25,11,02,24.20
2006,06,25,11,03,24.30
2006,06,25,11,04,24.30
2006,06,25,11,05,24.30
2006,06,25,11,06,24.30
2006,06,25,11,07,24.30
2006,06,25,11,08,24.30
2006,06,25,11,09,24.40
2006,06,25,11,10,24.30
2006,06,25,11,11,24.30
2006,06,25,11,12,24.30
2006,06,25,11,13,24.30
2006,06,25,11,14,24.40
2006,06,25,11,15,24.50
2006,06,25,11,16,24.60
2006,06,25,11,17,24.70
2006,06,25,11,18,24.70
2006,06,25,11,19,24.80
2006,06,25,11,20,24.80
2006,06,25,11,21,24.90
2006,06,25,11,22,24.90
2006,06,25,11,23,24.90
2006,06,25,11,24,24.90
2006,06,25,11,25,24.90
2006,06,25,11,26,25.00
2006,06,25,11,27,25.00
2006,06,25,11,28,25.10
2006,06,25,11,29,25.20
2006,06,25,11,30,25.30
2006,06,25,11,31,25.40
2006,06,25,11,32,25.40
2006,06,25,11,33,25.50
2006,06,25,11,34,25.50
2006,06,25,11,35,25.50
2006,06,25,11,36,25.60
2006,06,25,11,37,25.70
2006,06,25,11,38,25.70
2006,06,25,11,39,25.80
2006,06,25,11,40,25.80
2006,06,25,11,41,25.70
2006,06,25,11,42,25.70
2006,06,25,11,43,25.70
2006,06,25,11,44,25.60
2006,06,25,11,45,25.60
2006,06,25,11,46,25.60
2006,06,25,11,47,25.60
2006,06,25,11,48,25.60
2006,06,25,11,49,25.60
2006,06,25,11,50,25.60
2006,06,25,11,51,25.60
2006,06,25,11,52,25.60
2006,06,25,11,53,25.70
2006,06,25,11,54,25.80
2006,06,25,11,55,25.90
2006,06,25,11,56,25.90
2006,06,25,11,57,25.90
2006,06,25,11,58,26.00
2006,06,25,11,59,26.00
2006,06,25,12,00,26.00
2006,06,25,12,01,26.10
2006,06,25,12,02,26.10
2006,06,25,12,03,26.20
2006,06,25,12,04,26.20
2006,06,25,12,05,26.20
2006,06,25,12,06,26.20
2006,06,25,12,07,26.20
2006,06,25,12,08,26.20
2006,06,25,12,09,26.20
2006,06,25,12,10,26.20
2006,06,25,12,11,26.30
2006,06,25,12,12,26.30
2006,06,25,12,13,26.40
2006,06,25,12,14,26.50
2006,06,25,12,15,26.60
2006,06,25,12,16,26.60
2006,06,25,12,17,26.70
2006,06,25,12,18,26.70
2006,06,25,12,19,26.80
2006,06,25,12,20,26.80
2006,06,25,12,21,26.80
2006,06,25,12,22,26.90
2006,06,25,12,23,26.90
2006,06,25,12,24,26.90
2006,06,25,12,25,27.00
2006,06,25,12,26,27.10
2006,06,25,12,27,27.00
2006,06,25,12,28,27.00
2006,06,25,12,29,26.90
2006,06,25,12,30,26.90
2006,06,25,12,31,26.80
2006,06,25,12,32,26.80
2006,06,25,12,33,26.90
2006,06,25,12,34,26.90
2006,06,25,12,35,26.90
2006,06,25,12,36,27.00
2006,06,25,12,37,26.90
2006,06,25,12,38,26.90
2006,06,25,12,39,26.80
2006,06,25,12,40,26.90
2006,06,25,12,41,26.90
2006,06,25,12,42,26.90
2006,06,25,12,43,26.90
2006,06,25,12,44,27.00
2006,06,25,12,45,27.00
2006,06,25,12,46,27.10
2006,06,25,12,47,27.10
2006,06,25,12,48,27.10
2006,06,25,12,49,27.10
2006,06,25,12,50,27.20
2006,06,25,12,51,27.20
2006,06,25,12,52,27.30
2006,06,25,12,53,27.20
2006,06,25,12,54,27.10
2006,06,25,12,55,27.10
2006,06,25,12,56,27.00
2006,06,25,12,57,27.00
2006,06,25,12,58,26.90
2006,06,25,12,59,26.90
2006,06,25,13,00,26.90
2006,06,25,13,01,26.90
2006,06,25,13,02,26.90
2006,06,25,13,03,27.00
2006,06,25,13,04,27.10
2006,06,25,13,05,27.20
2006,06,25,13,06,27.20
2006,06,25,13,07,27.20
2006,06,25,13,08,27.20
2006,06,25,13,09,27.20
2006,06,25,13,10,27.20
2006,06,25,13,11,27.30
2006,06,25,13,12,27.30
2006,06,25,13,13,27.30
2006,06,25,13,14,27.30
2006,06,25,13,15,27.30
2006,06,25,13,16,27.40
2006,06,25,13,17,27.40
2006,06,25,13,18,27.40
2006,06,25,13,19,27.40
2006,06,25,13,20,27.40
2006,06,25,13,21,27.40
2006,06,25,13,22,27.40
2006,06,25,13,23,27.40
2006,06,25,13,24,27.50
2006,06,25,13,25,27.50
2006,06,25,13,26,27.60
2006,06,25,13,27,27.60
2006,06,25,13,28,27.60
2006,06,25,13,29,27.60
2006,06,25,13,30,27.60
2006,06,25,13,31,27.50
2006,06,25,13,32,27.50
2006,06,25,13,33,27.60
2006,06,25,13,34,27.60
2006,06,25,13,35,27.70
2006,06,25,13,36,27.80
2006,06,25,13,37,27.80
2006,06,25,13,38,27.90
2006,06,25,13,39,27.90
2006,06,25,13,40,28.00
2006,06,25,13,41,28.00
2006,06,25,13,42,28.00
2006,06,25,13,43,28.10
2006,06,25,13,44,28.10
2006,06,25,13,45,28.10
2006,06,25,13,46,28.20
2006,06,25,13,47,28.20
2006,06,25,13,48,28.30
2006,06,25,13,49,28.40
2006,06,25,13,50,28.50
2006,06,25,13,51,28.50
2006,06,25,13,52,28.60
2006,06,25,13,53,28.70
2006,06,25,13,54,28.80
2006,06,25,13,55,28.90
2006,06,25,13,56,28.90
2006,06,25,13,57,28.90
2006,06,25,13,58,28.90
2006,06,25,13,59,28.90
2006,06,25,14,00,28.90
2006,06,25,14,01,28.80
2006,06,25,14,02,28.80
2006,06,25,14,03,28.90
2006,06,25,14,04,28.90
2006,06,25,14,05,29.00
2006,06,25,14,06,29.10
2006,06,25,14,07,29.20
2006,06,25,14,08,29.30
2006,06,25,14,09,29.30
2006,06,25,14,10,29.40
2006,06,25,14,11,29.40
2006,06,25,14,12,29.40
2006,06,25,14,13,29.30
2006,06,25,14,14,29.30
2006,06,25,14,15,29.30
2006,06,25,14,16,29.20
2006,06,25,14,17,29.20
2006,06,25,14,18,29.30
2006,06,25,14,19,29.30
2006,06,25,14,20,29.30
2006,06,25,14,21,29.30
2006,06,25,14,22,29.30
2006,06,25,14,23,29.30
2006,06,25,14,24,29.30
2006,06,25,14,25,29.30
2006,06,25,14,26,29.30
2006,06,25,14,27,29.30
2006,06,25,14,28,29.30
2006,06,25,14,29,29.30
2006,06,25,14,30,29.30
2006,06,25,14,31,29.30
2006,06,25,14,32,29.20
2006,06,25,14,33,29.20
2006,06,25,14,34,29.20
2006,06,25,14,35,29.20
2006,06,25,14,36,29.20
2006,06,25,14,37,29.20
2006,06,25,14,38,29.20
2006,06,25,14,39,29.20
2006,06,25,14,40,29.20
2006,06,25,14,41,29.30
2006,06,25,14,42,29.30
2006,06,25,14,43,29.40
2006,06,25,14,44,29.40
2006,06,25,14,45,29.40
2006,06,25,14,46,29.40
2006,06,25,14,47,29.40
2006,06,25,14,48,29.40
2006,06,25,14,49,29.50
2006,06,25,14,50,29.50
2006,06,25,14,51,29.50
2006,06,25,14,52,29.40
2006,06,25,14,53,29.30
2006,06,25,14,54,29.30
2006,06,25,14,55,29.40
2006,06,25,14,56,29.30
2006,06,25,14,57,29.30
2006,06,25,14,58,29.30
2006,06,25,14,59,29.30
2006,06,25,15,00,29.30
2006,06,25,15,01,29.20
2006,06,25,15,02,29.20
2006,06,25,15,03,29.20
2006,06,25,15,04,29.20
2006,06,25,15,05,29.20
2006,06,25,15,06,29.20
2006,06,25,15,07,29.20
2006,06,25,15,08,29.30
2006,06,25,15,09,29.30
2006,06,25,15,10,29.30
2006,06,25,15,11,29.40
2006,06,25,15,12,29.40
2006,06,25,15,13,29.40
2006,06,25,15,14,29.50
2006,06,25,15,15,29.50
2006,06,25,15,16,29.60
2006,06,25,15,17,29.70
2006,06,25,15,18,29.70
2006,06,25,15,19,29.70
2006,06,25,15,20,29.80
2006,06,25,15,21,29.80
2006,06,25,15,22,29.80
2006,06,25,15,23,29.80
2006,06,25,15,24,29.80
2006,06,25,15,25,29.90
2006,06,25,15,26,29.90
2006,06,25,15,27,30.00
2006,06,25,15,28,30.10
2006,06,25,15,29,30.20
2006,06,25,15,30,30.20
2006,06,25,15,31,30.10
2006,06,25,15,32,30.10
2006,06,25,15,33,30.10
2006,06,25,15,34,30.10
2006,06,25,15,35,30.20
2006,06,25,15,36,30.20
2006,06,25,15,37,30.20
2006,06,25,15,38,30.20
2006,06,25,15,39,30.20
2006,06,25,15,40,30.30
2006,06,25,15,41,30.40
2006,06,25,15,42,30.50
2006,06,25,15,43,30.50
2006,06,25,15,44,30.40
2006,06,25,15,45,30.40
2006,06,25,15,46,30.40
2006,06,25,15,47,30.40
2006,06,25,15,48,30.30
2006,06,25,15,49,30.40
2006,06,25,15,50,30.40
2006,06,25,15,51,30.40
2006,06,25,15,52,30.50
2006,06,25,15,53,30.50
2006,06,25,15,54,30.50
2006,06,25,15,55,30.60
2006,06,25,15,56,30.60
2006,06,25,15,57,30.60
2006,06,25,15,58,30.70
2006,06,25,15,59,30.80
2006,06,25,16,00,30.80
2006,06,25,16,01,30.90
2006,06,25,16,02,31.00
2006,06,25,16,03,31.10
2006,06,25,16,04,31.10
2006,06,25,16,05,31.10
2006,06,25,16,06,31.20
2006,06,25,16,07,31.20
2006,06,25,16,08,31.30
2006,06,25,16,09,31.40
2006,06,25,16,10,31.40
2006,06,25,16,11,31.50
2006,06,25,16,12,31.60
2006,06,25,16,13,31.70
2006,06,25,16,14,31.70
2006,06,25,16,15,31.80
2006,06,25,16,16,31.80
2006,06,25,16,17,31.70
2006,06,25,16,18,31.60
2006,06,25,16,19,31.50
2006,06,25,16,20,31.40
2006,06,25,16,21,31.40
2006,06,25,16,22,31.30
2006,06,25,16,23,31.40
2006,06,25,16,24,31.40
2006,06,25,16,25,31.50
2006,06,25,16,26,31.50
2006,06,25,16,27,31.60
2006,06,25,16,28,31.60
2006,06,25,16,29,31.60
2006,06,25,16,30,31.60
2006,06,25,16,31,31.50
2006,06,25,16,32,31.40
2006,06,25,16,33,31.40
2006,06,25,16,34,31.40
2006,06,25,16,35,31.50
2006,06,25,16,36,31.50
2006,06,25,16,37,31.60
2006,06,25,16,38,31.50
2006,06,25,16,39,31.50
2006,06,25,16,40,31.40
2006,06,25,16,41,31.40
2006,06,25,16,42,31.50
2006,06,25,16,43,31.40
2006,06,25,16,44,31.50
2006,06,25,16,45,31.50
2006,06,25,16,46,31.50
2006,06,25,16,47,31.50
2006,06,25,16,48,31.50
2006,06,25,16,49,31.50
2006,06,25,16,50,31.40
2006,06,25,16,51,31.30
2006,06,25,16,52,31.30
2006,06,25,16,53,31.20
2006,06,25,16,54,31.20
2006,06,25,16,55,31.20
2006,06,25,16,56,31.20
2006,06,25,16,57,31.20
2006,06,25,16,58,31.20
2006,06,25,16,59,31.20
2006,06,25,17,00,31.20
2006,06,25,17,01,31.20
2006,06,25,17,02,31.20
2006,06,25,17,03,31.20
2006,06,25,17,04,31.20
2006,06,25,17,05,31.20
2006,06,25,17,06,31.20
2006,06,25,17,07,31.20
2006,06,25,17,08,31.20
2006,06,25,17,09,31.20
2006,06,25,17,10,31.20
2006,06,25,17,11,31.20
2006,06,25,17,12,31.20
2006,06,25,17,13,31.10
2006,06,25,17,14,31.10
2006,06,25,17,15,31.10
2006,06,25,17,16,31.10
2006,06,25,17,17,31.10
2006,06,25,17,18,31.10
2006,06,25,17,19,31.10